TimeGMT,TemperatureF,Dew PointF,Humidity,Sea Level PressureIn,VisibilityMPH,Wind Direction,Wind SpeedMPH,Gust SpeedMPH,PrecipitationIn,Events,Conditions,WindDirDegrees,DateUTC
12:50 AM,33.8,32.0,93,29.80,3.1,NE,8.1,-,N/A,,Overcast,50,2013-02-12 00:50:00
1:50 AM,33.8,32.0,93,29.80,3.1,NE,6.9,-,N/A,,Mostly Cloudy,40,2013-02-12 01:50:00
2:50 AM,34,31,85,29.85,4,NNE,8.1,,,,Scattered Clouds,30,2013-02-12 02:50:00
2:50 AM,33.8,32.0,93,29.83,3.7,NNE,8.1,-,N/A,,Mostly Cloudy,30,2013-02-12 02:50:00
3:50 AM,33.8,30.2,87,29.83,5.0,NE,8.1,-,N/A,,Mostly Cloudy,50,2013-02-12 03:50:00
4:50 AM,33.8,30.2,87,29.86,5.6,NE,10.4,-,N/A,,Mostly Cloudy,50,2013-02-12 04:50:00
5:50 AM,34,27,67,29.90,4,NE,8.1,,,,Haze,50,2013-02-12 05:50:00
5:50 AM,33.8,26.6,75,29.89,4.3,NE,8.1,-,N/A,,Haze,50,2013-02-12 05:50:00
6:50 AM,33.8,28.4,81,29.77,4.3,NE,6.9,-,N/A,,Haze,50,2013-02-12 06:50:00
7:50 AM,33.8,28.4,81,29.92,4.3,NE,8.1,-,N/A,,Haze,50,2013-02-12 07:50:00
8:50 AM,34,27,66,29.97,5,NNE,6.9,,,,Haze,30,2013-02-12 08:50:00
8:50 AM,33.8,26.6,75,29.95,5.0,NNE,6.9,-,N/A,,Haze,30,2013-02-12 08:50:00
9:50 AM,33.8,26.6,75,29.98,5.0,NE,8.1,-,N/A,,Haze,40,2013-02-12 09:50:00
10:50 AM,35.6,28.4,75,29.98,5.6,NE,9.2,-,N/A,,Haze,50,2013-02-12 10:50:00
11:50 AM,35,28,66,30.02,6,NE,8.1,,,,Haze,50,2013-02-12 11:50:00
11:50 AM,35.6,28.4,75,30.01,5.6,NE,8.1,-,N/A,,Haze,50,2013-02-12 11:50:00
12:50 PM,35.6,26.6,70,30.01,5.6,ENE,9.2,-,N/A,,Haze,70,2013-02-12 12:50:00
1:50 PM,35.6,28.4,75,30.01,5.6,ENE,8.1,-,N/A,,Haze,70,2013-02-12 13:50:00
2:50 PM,35,28,66,30.03,6,ENE,8.1,,,,Haze,60,2013-02-12 14:50:00
2:50 PM,35.6,28.4,75,30.01,5.6,ENE,8.1,-,N/A,,Haze,60,2013-02-12 14:50:00
3:50 PM,35.6,28.4,75,30.04,5.0,NE,9.2,-,N/A,,Haze,50,2013-02-12 15:50:00
4:52 PM,35.6,28.4,75,30.04,5.0,NE,6.9,-,N/A,,Haze,50,2013-02-12 16:52:00
5:50 PM,35,28,68,30.08,5,ENE,6.9,,,,Haze,60,2013-02-12 17:50:00
5:50 PM,33.8,28.4,81,30.06,5.0,ENE,6.9,-,N/A,,Haze,60,2013-02-12 17:50:00
6:50 PM,33.8,26.6,75,30.09,5.6,NE,6.9,-,N/A,,Haze,50,2013-02-12 18:50:00
7:50 PM,33.8,24.8,70,30.09,5.6,ENE,8.1,-,N/A,,Haze,70,2013-02-12 19:50:00
8:50 PM,34,27,67,30.12,6,NE,4.6,,,,Haze,40,2013-02-12 20:50:00
8:50 PM,33.8,26.6,75,30.09,5.6,NE,4.6,-,N/A,,Haze,40,2013-02-12 20:50:00
9:50 PM,35.6,26.6,70,30.12,5.6,ENE,5.8,-,N/A,,Haze,60,2013-02-12 21:50:00
10:50 PM,33.8,26.6,75,30.12,6.2,ENE,3.5,-,N/A,,Overcast,60,2013-02-12 22:50:00
11:50 PM,33,27,69,30.15,7,ENE,4.6,,,,Overcast,60,2013-02-12 23:50:00
11:50 PM,33.8,26.6,75,30.12,6.2,ENE,4.6,-,N/A,,Overcast,60,2013-02-12 23:50:00